Location: Gunnedah
(30.9923°S, 150.2369°E)
Time: 06:47:48
(UTC+10:00)

Envisat - Visible Passes

Search period start: 22 August 2019 00:00
Search period end: 01 September 2019 00:00
Orbit: 764 x 766 km, 98.1° (Epoch: 21 August)

Date Brightness Start Highest point End Pass type
(mag) Time Alt. Az. Time Alt. Az. Time Alt. Az.
22 Aug 3.1 18:39:10 10° SSE 18:44:12 53° E 18:49:10 10° N visible
22 Aug 5.8 20:20:03 10° SW 20:22:41 14° WSW 20:25:19 10° W visible
23 Aug 4.5 05:48:20 10° NE 05:53:04 40° ESE 05:57:50 10° S visible
23 Aug 4.2 18:03:24 10° SE 18:07:17 22° E 18:11:09 10° NE visible
23 Aug 4.6 19:41:43 10° S 19:46:17 33° WSW 19:50:49 10° NW visible
24 Aug 5.8 05:13:22 10° ENE 05:16:38 17° ESE 05:19:53 10° SSE visible
24 Aug 3.0 19:04:32 10° S 19:09:42 81° WSW 19:14:47 10° NNW visible
25 Aug 3.4 18:28:05 10° SSE 18:32:56 40° E 18:37:42 10° NNE visible
25 Aug 5.5 20:08:07 10° SSW 20:11:34 18° WSW 20:14:59 10° WNW visible
26 Aug 5.0 05:37:27 10° NE 05:41:53 31° ESE 05:46:22 10° S visible
26 Aug 4.2 19:30:16 10° S 19:35:07 43° WSW 19:39:54 10° NW visible
27 Aug 6.0 05:03:09 10° E 05:05:30 13° ESE 05:07:52 10° SE visible
27 Aug 2.9 18:53:18 10° SSE 18:58:28 78° ENE 19:03:32 10° N visible
28 Aug 3.7 18:17:06 10° SE 18:21:38 31° E 18:26:07 10° NNE visible
28 Aug 5.2 19:56:25 10° SSW 20:00:25 24° WSW 20:04:24 10° WNW visible
29 Aug 5.5 05:26:41 10° ENE 05:30:44 24° ESE 05:34:49 10° SSE visible
29 Aug 3.6 19:18:53 10° S 19:23:55 56° WSW 19:28:52 10° NNW visible
30 Aug 3.0 18:42:08 10° SSE 18:47:13 59° E 18:52:13 10° N visible
30 Aug 6.0 20:23:26 10° SW 20:25:38 13° WSW 20:27:50 10° W visible
31 Aug 4.4 05:51:14 10° NE 05:56:03 44° ESE 06:00:55 10° S visible
31 Aug 4.0 18:06:13 10° SE 18:10:20 24° E 18:14:23 10° NNE visible
31 Aug 4.8 19:44:50 10° SSW 19:49:16 30° WSW 19:53:40 10° NW visible
